Regional Weather Roundup
Issued by NWS Upton, NY

Current Version | Previous Version | Text Only | Print | Product List | Glossary On
Versions: 1 2 3 4 5 6 7 8 9 10 11 12 13 14 15 16 17 18 19 20 21 22 23 24 25 26 27
000 ASUS41 KOKX 170308 RWROKX REGIONAL WEATHER ROUNDUP NATIONAL WEATHER SERVICE NEW YORK NY 1000 PM EST MON JAN 16 2017 NOTE: "FAIR" INDICATES FEW OR NO CLOUDS BELOW 12,000 FEET WITH NO SIGNIFICANT WEATHER AND/OR OBSTRUCTIONS TO VISIBILITY. NYZ071-072-176-178-NJZ106-104-170400- NEW YORK CITY METRO AREA CITY SKY/WX TMP DP RH WIND PRES REMARKS Central Park CLOUDY 41 24 51 W9G17 30.34F Wall St Helipt CLOUDY 41 27 57 W6 30.34F Bronx Bot Gard NOT AVBL LaGuardia APRT CLOUDY 43 24 47 SW9 30.32F Kennedy INTL CLOUDY 41 27 57 SW9 30.34F Breezy Point N/A 39 N/A N/A SW6 N/A WCI 35 Newark/Liberty CLOUDY 40 24 53 SW8 30.32F WCI 34 Teterboro CLOUDY 41 25 53 SW8 30.32F $$ NYZ177-179-078>081-170400- LONG ISLAND NEW YORK CITY SKY/WX TMP DP RH WIND PRES REMARKS Jones Beach N/A 39 N/A N/A SW7 N/A WCI 34 Matinecock PT N/A 39 N/A N/A SW9 N/A WCI 33 Farmingdale CLOUDY 39 27 62 SW7 30.32F WCI 34 MacArthur/ISP CLOUDY 38 31 76 SW5 30.31F WCI 34 Shirley CLOUDY 37 32 82 SW5 30.33F WCI 33 Westhampton CLOUDY 36 31 82 W9 30.33F WCI 29 Southampton NOT AVBL Bridgehampton NOT AVBL East Hampton N/A 37 29 75 W7 30.31F WCI 31 Montauk N/A 38 30 73 SW6 30.32F WCI 33 $$ NYZ052-065-067-170400- HUDSON VALLEY CITY SKY/WX TMP DP RH WIND PRES REMARKS White Plains CLOUDY 38 23 55 W6 30.29F WCI 33 Newburgh MOCLDY 36 27 69 W7 30.30F WCI 30 Montgomery CLOUDY 36 24 62 SW8 30.27F WCI 30 Poughkeepsie CLOUDY 36 23 59 SW9 30.29S WCI 29 Albany CLOUDY 25 19 78 CALM 30.28S $$ NJZ001-105-106-008-010-013-015-019>022-104-170400- NEW JERSEY CITY SKY/WX TMP DP RH WIND PRES REMARKS Newark/Liberty CLOUDY 40 24 53 SW8 30.32F WCI 34 Teterboro CLOUDY 41 25 53 SW8 30.32F Caldwell CLOUDY 39 24 55 S3 30.32F Somerville CLOUDY 34 27 75 CALM 30.31F Linden MOCLDY 40 24 52 W3 30.34S Sussex CLOUDY 35 26 69 CALM 30.29F Andover N/A 35 25 66 VRB5 30.30F WCI 31 Trenton CLOUDY 39 25 57 SW3 30.33F Millville CLOUDY 38 25 59 CALM 30.35F Atlantic City CLOUDY 39 23 52 S3 30.34F Wrightstown CLOUDY 38 24 56 SW3 30.31F Toms River CLOUDY 36 28 73 CALM 30.35F Belmar CLOUDY 37 24 59 S6 30.34F WCI 32 $$ PAZ047>061-062-071-170400- EASTERN PENNSYLVANIA CITY SKY/WX TMP DP RH WIND PRES REMARKS Philadelphia CLOUDY 39 26 59 S3 30.35F Allentown CLOUDY 37 25 61 SW6 30.31F WCI 32 Scranton CLOUDY 36 27 69 CALM 30.27F $$ CTZ002-004>006-009-010-012-RIZ004-006-007-MAZ004-011-015-170400- SOUTHERN NEW ENGLAND IN CT CITY SKY/WX TMP DP RH WIND PRES REMARKS Bradley INTL CLOUDY 33 22 63 S8 30.27F WCI 26 Hartford PTCLDY 32 24 72 S5 30.29F WCI 27 Danbury CLOUDY 36 24 62 SW6 30.30S WCI 31 Wtrbury/Oxford CLOUDY 34 21 60 W3 30.28S Bridgeport CLOUDY 39 32 76 SW7 30.31F WCI 34 Meriden CLOUDY 31 25 78 S6 30.30F WCI 25 New Haven CLOUDY 38 31 76 SW7 30.31F WCI 33 Chester N/A 36 30 80 SW8 30.27F WCI 29 Groton CLOUDY 37 30 75 W7 30.30F WCI 32 Wilimantic CLOUDY 30 25 81 CALM 30.29F IN RI CITY SKY/WX TMP DP RH WIND PRES REMARKS Providence CLOUDY 34 24 67 SW6 30.28F WCI 29 Block Island NOT AVBL Westerly PTCLDY 37 29 72 VRB6 30.30F WCI 32 IN MA CITY SKY/WX TMP DP RH WIND PRES REMARKS Boston MOCLDY 36 19 50 SW14 30.24F WCI 27 Worcester PTCLDY 32 16 51 W16 30.20F WCI 21 Westfield PTCLDY 34 20 56 S7 30.25F WCI 28 Provincetown CLOUDY 37 26 64 W18 30.25F WCI 27 Nantucket CLEAR 39 31 72 W16G24 30.28S WCI 30 $$ ANZ330-335-338-340-345-350-353-355-170400- COASTAL MARINE OBSERVATIONS STATION/POSITION TIME SKY/WX TEMP WIND PRES VSBY WAVE AIR SEA DIR/SP/G HT/PER (UTC) (F) (DEG/KT/KT) (MB) (MI) (FT/S) NY HARB ENTRANCE 0150 42 44 250/ 10/ 12 1027.6 2/ 4 20 S FIRE ISLAND 0250 42 45 250/ 12/ 14 1027.0 2/ 3 GREAT SOUTH BAY NOT AVBL 23 SSW MONTAUK P 0150 42 48 250/ 17/ 19 1027.2 3/ 4 15 E BARNEGAT LI 0230 45 N/A 2/11 HUDSON CANYON 0150 46 53 1028.1 2/ 9 KINGS POINT 0242 41 38 1026.6 EXECUTION ROCKS 0245 41 230/ 8/ 10 N/A CENTRAL LI SOUND 0200 39 230/ 14/ 17 N/A 2/ 3 EASTERN LI SOUND NOT AVBL ROBBINS REEF 0242 40 240/ 7/ 9 1027.3 $$ >>>>>>>>>>>>>>>>>>>>>>>>>>>> KEY <<<<<<<<<<<<<<<<<<<<<<<<<<< > < > SKY/WX - Sky Condition/Present Weather < > TMP - Temperature in Fahrenheit < > DP - Dew Point in Fahrenheit < > RH - Relative Humidity in Percent < > WIND - Direction (from) and Speed in MPH < > PRES - Mean Sea Level Pressure (inches of Hg) < > WCI - Wind Chill Index < > VSB - VISIBILITY IN MILES < > HX - HEAT INDEX < > TC - TEMPERATURE IN CELSIUS < > VRB - VARIABLE WIND DIRECTION < > < >>>>>>>>>>>>>>>>>>>>>>>>>>>> KEY <<<<<<<<<<<<<<<<<<<<<<<<<<<

USA.gov is the U.S. government's official web portal to all federal, state and local government web resources and services.